Hyannis, MA

3:27 PM EDT on June 22, 2017 (GMT -0400)
Barnstable Municipal-Boardman-Polando Field

Weather History for KHYA - March, 2013

Change the Weather History Date:

Monday, March 25, 2013

  Actual Average Record
Temperature  
Mean Temperature 37 °F -  
Max Temperature 48 °F 46 °F 62 °F (1963)
Min Temperature 28 °F 31 °F 14 °F (2014)
Degree Days  
Heating Degree Days 28    
Moisture  
Dew Point 29 °F    
Average Humidity 70    
Maximum Humidity 89    
Minimum Humidity 46    
Precipitation  
Precipitation 0.00 in - - ()
Sea Level Pressure  
Sea Level Pressure 29.57 in    
Wind  
Wind Speed 7 mph (NE)    
Max Wind Speed 22 mph    
Max Gust Speed 32 mph    
Visibility 10 miles    
Events Rain    
Averages and records for this station are not official NWS values.
T = Trace of Precipitation, MM = Missing Value Source: NWS Daily Summary

Daily Weather History Graph

Daily Weather History Graph

Search for Another Location

Airport or City:

Trip Planner

Search our weather history database for the weather conditions in past years. The results will help you decide how hot, cold, wet, or windy it might be!

Date:

Astronomy

Mar. 25, 2013 Rise Set
Actual Time 6:35 AM EDT 6:59 PM EDT
Civil Twilight 6:07 AM EDT 7:26 PM EDT
Nautical Twilight 5:35 AM EDT 7:59 PM EDT
Astronomical Twilight 5:01 AM EDT 8:33 PM EDT
Moon 5:26 PM EDT (3/25) 5:18 AM EDT (3/25)
Length of Visible Light 13h 19m
Length of Day
12h 23m
Waxing Gibbous, 96% of the Moon is Illuminated
Mar 25
Waxing Gibbous
Mar 27
Full
Apr 3
Last Quarter
Apr 10
New
Apr 18
First Quarter

Hourly Weather History & Observations

Time (EDT) Temp. Windchill Dew Point Humidity Pressure Visibility Wind Dir Wind Speed Gust Speed Precip Events Conditions
12:56 AM 28.9 °F - 25.0 °F 85% 29.74 in 10.0 mi Calm Calm - N/A   Clear
1:56 AM 28.9 °F - 25.0 °F 85% 29.73 in 10.0 mi Calm Calm - N/A   Clear
2:56 AM 30.0 °F - 27.0 °F 88% 29.72 in 10.0 mi Calm Calm - N/A   Clear
3:56 AM 30.0 °F 26.5 °F 27.0 °F 88% 29.70 in 10.0 mi North 3.5 mph - N/A   Clear
4:56 AM 30.0 °F - 27.0 °F 88% 29.68 in 10.0 mi Calm Calm - N/A   Clear
5:56 AM 30.9 °F 26.2 °F 28.0 °F 89% 29.66 in 10.0 mi North 4.6 mph - N/A   Clear
6:56 AM 33.1 °F - 30.0 °F 89% 29.67 in 10.0 mi Calm Calm - N/A   Clear
7:56 AM 37.0 °F 33.3 °F 34.0 °F 89% 29.67 in 10.0 mi NE 4.6 mph - N/A   Scattered Clouds
8:56 AM 42.1 °F 37.1 °F 34.0 °F 73% 29.66 in 10.0 mi ENE 8.1 mph - N/A   Scattered Clouds
9:56 AM 45.0 °F 38.9 °F 33.1 °F 63% 29.62 in 10.0 mi East 12.7 mph - N/A   Scattered Clouds
10:56 AM 45.0 °F 39.3 °F 28.9 °F 53% 29.61 in 10.0 mi ENE 11.5 mph - N/A   Scattered Clouds
11:56 AM 46.0 °F 39.9 °F 26.1 °F 46% 29.60 in 10.0 mi East 13.8 mph 26.5 mph N/A   Partly Cloudy
12:56 PM 46.9 °F - 28.0 °F 48% 29.56 in 10.0 mi East 16.1 mph 23.0 mph N/A   Mostly Cloudy
1:56 PM 44.1 °F 35.9 °F 28.0 °F 53% 29.55 in 10.0 mi East 19.6 mph 28.8 mph N/A   Overcast
2:56 PM 43.0 °F 34.5 °F 28.0 °F 56% 29.49 in 10.0 mi ENE 19.6 mph 32.2 mph N/A   Scattered Clouds
3:56 PM 42.1 °F 35.2 °F 28.0 °F 58% 29.46 in 10.0 mi ENE 12.7 mph 29.9 mph N/A   Mostly Cloudy
4:56 PM 41.0 °F 31.6 °F 28.0 °F 60% 29.44 in 10.0 mi ENE 20.7 mph 29.9 mph N/A   Overcast
5:56 PM 41.0 °F 33.1 °F 28.9 °F 62% 29.46 in 10.0 mi ENE 15.0 mph 26.5 mph N/A   Overcast
6:56 PM 39.9 °F 32.5 °F 28.9 °F 65% 29.45 in 10.0 mi NE 12.7 mph 26.5 mph N/A   Overcast
7:56 PM 39.9 °F 32.1 °F 28.9 °F 65% 29.46 in 10.0 mi NE 13.8 mph 24.2 mph N/A   Overcast
8:56 PM 39.9 °F 30.0 °F 30.0 °F 68% 29.45 in 9.0 mi NE 21.9 mph 27.6 mph 0.00 in Rain Light Rain
9:56 PM 39.9 °F 31.4 °F 33.1 °F 77% 29.44 in 10.0 mi NE 16.1 mph 26.5 mph 0.00 in Rain Light Rain
10:56 PM 39.9 °F 30.2 °F 30.9 °F 70% 29.43 in 10.0 mi NE 20.7 mph 29.9 mph 0.00 in   Overcast
11:56 PM 39.9 °F 30.8 °F 30.9 °F 70% 29.42 in 10.0 mi NE 18.4 mph 27.6 mph 0.00 in   Mostly Cloudy